Weather Roundup
Issued by NWS

Home | Current Version | Previous Version | Text Only | Print | Product List | Glossary On
Versions: 1 2 3 4 5 6 7 8 9 10 11 12 13 14 15 16 17 18 19 20 21 22 23 24 25 26 27 28 29 30 31 32 33 34 35 36 37 38 39 40 41 42 43 44 45 46 47 48 49 50
107
NZUS93 KARX 280710
HRRWXR

CURRENT HOURLY OBSERVATIONS ACROSS
MUCH OF THE UPPER MISSISSIPPI VALLEY
NATIONAL WEATHER SERVICE LA CROSSE WI
200 AM CDT FRI APR 28 2017


...SOUTHEAST MINNESOTA...


CITY           SKY/WX    TMP DP  RH WIND       PRES   REMARKS
ROCHESTER      CLEAR     31  27  85 W9        29.82S WCI  23
ROCHESTER/MAYO FAIR      33  27  79 W8        29.82S WCI  26
WINONA         CLOUDY    36  28  75 W10       29.84S WCI  28
AUSTIN         CLEAR     30  27  86 W3        29.84S
ALBERT LEA     CLEAR     30  27  86 CALM      29.85S
DODGE CENTER   CLEAR     30  27  86 W8        29.82S WCI  23
PRESTON        MOCLDY    32  25  77 W12       29.84S WCI  23
OWATONNA       PTCLDY    32  27  80 SW7       29.83F WCI  26
FARIBAULT      CLOUDY    34  28  80 S6        29.83S WCI  29
$$

...ELSEWHERE IN MINNESOTA...


CITY           SKY/WX    TMP DP  RH WIND       PRES   REMARKS
MINNEAPOLIS    CLOUDY    35  26  69 W7        29.80S WCI  29
INTNL FALLS    CLOUDY    27  22  81 NW8       29.67S WCI  19
DULUTH         CLOUDY    28  23  81 W13       29.67R WCI  17
RED WING       CLEAR     34  25  69 NW3       29.81R
REDWOOD FALLS  CLOUDY    36  28  73 SW12      29.83R WCI  28
MANKATO        CLOUDY    34  28  79 SW8       29.84S WCI  27
WORTHINGTON    CLEAR     27  26  96 S6        29.85S WCI  20
FAIRMONT       CLEAR     30  26  85 SW7       29.87R WCI  23
$$

...SOUTHWEST WISCONSIN...


CITY           SKY/WX    TMP DP  RH WIND       PRES   REMARKS
LA CROSSE      CLOUDY    38  28  67 W12       29.84R WCI  30
PRAIRIE DU CHI PTCLDY    36  28  72 W8        29.86S WCI  30
BOSCOBEL       CLOUDY    39  30  70 VRB7      29.86R WCI  34
LONE ROCK      CLOUDY    38  29  70 W9        29.85R WCI  31
PLATTEVILLE    CLEAR     33  32  97 W5        29.86R WCI  28
FORT MC COY    CLOUDY    35  30  81 W5        29.83R WCI  31
CAMP DOUGLAS   CLOUDY    35  29  79 W10       29.81S WCI  27
MAUSTON-NEW LI CLOUDY    36  29  77 W14G20    29.81S WCI  27
VIROQUA        CLOUDY    34  29  83 W12G21    29.82S WCI  25
WIS DELLS      CLOUDY    36  28  75 W10       29.82R WCI  28
$$

...ELSEWHERE IN WISCONSIN...


CITY           SKY/WX    TMP DP  RH WIND       PRES   REMARKS
MILWAUKEE      MOCLDY    41  31  67 W10       29.84R
MADISON        CLOUDY    38  30  73 VRB6      29.83R WCI  33
GREEN BAY      CLOUDY    38  33  82 W15       29.77R WCI  29
EAU CLAIRE     CLOUDY    33  25  72 W7        29.78S WCI  27
BLACK RVR FLS  CLOUDY    35  24  64 W17       29.81S WCI  25
MEDFORD        CLOUDY    29  24  80 W8G16     29.74S WCI  21
WAUSAU         CLOUDY    30  25  81 W16G23    29.75R WCI  19
WIS RAPIDS     CLOUDY    33  30  88 W12G20    29.79S WCI  24
MARSHFIELD     CLOUDY    31  26  82 W12       29.76R WCI  22
RICE LAKE      CLOUDY    32  25  76 W9        29.77S WCI  24
$$

...NORTHEAST IOWA...


CITY           SKY/WX    TMP DP  RH WIND       PRES   REMARKS
WATERLOO       CLOUDY    31  27  85 N8        29.86S WCI  23
DUBUQUE        CLOUDY    32  30  92 CALM      29.86S
DECORAH        CLOUDY    34  27  75 VRB7      29.85R WCI  28
MASON CITY     CLEAR     29  25  85 W5        29.88R WCI  24
CHARLES CITY   CLEAR     32  28  86 NW7       29.87R WCI  26
OELWEIN        NOT AVBL
$$

...ELSEWHERE IN IOWA...


CITY           SKY/WX    TMP DP  RH WIND       PRES   REMARKS
DES MOINES     CLOUDY    42  32  67 NE8       29.85S
IOWA CITY      PTCLDY    40  34  79 CALM      29.88F
FORT DODGE     CLOUDY    32  25  74 NE3       29.87R
MARSHALLTOWN   PTCLDY    35  30  82 NE5       29.85R WCI  31
CEDAR RAPIDS   CLOUDY    34  32  92 CALM      29.86S
$$

...NORTHERN ILLINOIS...


CITY           SKY/WX    TMP DP  RH WIND       PRES   REMARKS
CHICAGO-OHARE  MOCLDY    43  37  79 W6        29.87S
CHICAGO-MIDWAY CLOUDY    43  38  82 CALM      29.88S
MOLINE         MOCLDY    39  36  89 CALM      29.87S
ROCKFORD       CLOUDY    39  33  79 W6        29.89F WCI  35
PEORIA         CLOUDY    49  45  86 NE7       29.84F
$$

NOTE: "FAIR" INDICATES FEW OR NO CLOUDS BELOW 12,000 FEET WITH NO
SIGNIFICANT WEATHER AND/OR OBSTRUCTIONS TO VISIBILITY. WIND
SPEEDS ARE IN MILES-PER-HOUR.




USA.gov is the U.S. government's official web portal to all federal, state and local government web resources and services.